GFSFLT2_850_thetae_108.txt.gz
Theta_e
322 322 322 321 320 320 322 324 326 328 328 331 333 334 336 336 335 333 331 332 332 330 329 329 326 325 324 326 327 329 328 329
322 322 321 320 320 320 321 323 326 328 328 330 333 334 335 335 335 335 332 332 332 329 330 329 327 325 325 326 327 329 330 330
322 321 321 320 321 321 322 322 324 326 328 328 332 333 333 335 335 335 334 332 332 330 330 329 327 325 325 326 325 327 329 331
322 321 321 320 320 321 322 323 322 323 325 326 328 332 332 334 335 336 335 334 332 331 330 330 328 326 325 326 325 326 328 328
326 322 321 321 320 320 321 322 322 322 323 324 326 329 333 334 335 336 335 334 333 332 331 330 329 327 324 325 326 327 326 328
325 325 323 321 321 321 321 321 321 321 321 323 324 328 332 335 335 336 336 335 334 333 332 331 330 328 326 325 325 326 324 325
329 326 323 323 322 322 321 320 320 321 321 321 323 325 328 333 335 336 336 335 335 333 333 332 331 329 327 326 325 326 326 325
326 338 332 326 325 326 326 322 321 320 321 321 320 321 324 331 334 335 335 335 334 334 333 332 331 330 329 326 325 325 325 325
315 325 336 338 336 334 334 331 326 322 320 321 321 320 321 326 331 334 334 335 334 334 333 333 332 330 330 326 325 325 325 325
314 315 317 327 337 336 335 334 332 329 324 321 321 321 321 323 329 330 333 334 334 334 333 333 332 331 329 326 325 325 325 324
313 314 315 316 320 335 335 334 334 335 334 325 321 322 322 322 327 330 331 332 333 333 333 333 332 331 328 327 326 325 325 325
313 314 314 315 316 323 334 335 333 331 335 330 323 322 323 323 325 330 330 332 332 333 333 333 331 330 329 327 326 325 326 326
312 313 314 314 315 316 323 334 334 330 328 334 328 326 324 324 325 328 331 331 331 331 332 331 330 329 328 327 326 327 326 326
311 311 312 313 314 315 317 318 334 326 324 333 333 331 328 326 325 326 330 331 332 332 332 331 329 328 328 328 327 327 327 326
310 311 311 312 314 315 322 327 334 334 330 328 334 334 332 329 329 328 328 330 332 333 332 330 329 327 327 327 326 325 325 324
312 311 311 312 312 315 323 328 327 327 324 321 328 335 334 332 332 332 331 331 332 332 331 330 329 327 326 327 327 325 324 324
318 314 313 313 313 314 317 325 322 320 319 325 324 334 334 332 332 334 332 332 333 332 331 329 328 327 327 327 326 326 325 323
322 319 316 316 316 314 316 321 320 322 325 325 326 332 333 330 331 333 332 332 332 331 330 329 329 328 327 327 327 324 325 325
321 326 324 318 315 318 323 324 326 321 325 327 327 332 330 327 328 333 333 330 332 330 329 329 329 327 327 327 327 325 325 324
318 324 330 333 328 327 333 330 329 331 329 329 329 331 331 327 327 329 332 329 330 329 329 329 328 328 328 327 327 326 324 323

GFSFLT2_850_thetae_111.txt.gz
Theta_e
333 332 331 329 328 330 330 329 328 330 332 333 333 334 335 334 333 330 329 329 331 331 330 328 327 324 324 325 327 328 329 331
336 330 327 327 330 331 330 328 327 329 331 333 333 334 335 335 335 333 331 330 331 330 329 329 327 324 323 325 326 327 329 330
337 331 328 327 328 328 329 327 328 328 331 333 334 334 335 335 335 334 333 332 331 330 328 329 327 325 324 325 326 326 328 330
335 330 327 329 329 327 326 326 329 329 329 332 334 332 333 335 335 335 334 333 332 331 329 329 328 326 325 326 326 326 328 331
331 328 327 327 326 326 324 323 325 326 328 330 331 333 332 333 335 335 335 334 333 332 330 330 329 327 325 325 326 325 326 328
329 328 327 325 326 325 324 322 322 322 324 326 328 330 331 332 334 335 335 335 334 332 331 330 330 328 327 325 326 325 325 327
332 328 326 326 325 324 323 322 321 321 323 324 324 326 328 330 332 334 335 335 334 334 332 331 331 330 329 327 326 325 326 324
316 318 320 329 324 324 323 322 321 321 322 322 323 323 325 327 330 333 335 335 335 334 333 332 332 331 330 328 327 326 326 326
313 313 314 320 335 329 324 323 322 322 321 321 322 323 324 326 328 331 332 335 335 334 334 333 332 332 331 329 327 327 327 326
313 313 313 314 317 330 336 329 326 325 323 322 322 322 322 323 326 329 332 332 335 335 334 334 333 332 332 330 328 328 327 325
313 313 313 313 314 315 324 331 335 333 331 327 324 323 322 321 322 327 331 332 333 335 335 334 333 333 333 331 329 327 326 325
311 312 312 312 313 314 315 323 333 336 333 332 332 326 323 322 322 323 328 330 333 333 335 334 334 333 332 329 328 327 326 326
310 310 311 311 313 313 314 315 322 333 334 330 332 334 328 323 323 322 326 328 328 331 333 333 335 331 331 329 329 329 327 326
311 311 311 310 311 313 314 314 315 323 332 331 330 331 334 326 324 323 323 327 328 329 331 332 334 331 329 330 329 328 328 326
311 311 311 310 310 312 318 321 325 323 332 335 330 327 332 332 325 325 324 325 326 327 328 329 332 330 329 329 327 326 326 326
313 312 311 311 310 310 322 321 329 330 318 322 331 326 328 333 331 328 326 326 327 327 328 329 331 330 329 328 327 326 326 325
314 314 314 312 311 312 313 322 321 328 320 319 327 326 326 327 333 331 329 328 327 327 329 331 330 329 328 328 326 326 326 325
312 314 317 316 313 314 314 316 326 330 327 322 326 331 326 328 331 333 332 332 331 331 331 332 330 330 329 328 327 326 326 327
308 311 316 320 319 316 317 324 329 330 327 324 324 331 328 323 327 332 332 331 330 332 332 331 331 330 329 328 327 327 327 326
303 307 315 320 325 320 326 326 333 331 331 332 330 330 326 326 325 330 328 327 327 332 332 330 330 329 328 328 328 326 326 327

GFSFLT2_850_thetae_114.txt.gz
Theta_e
339 339 339 337 336 333 333 333 333 333 333 333 333 334 333 332 331 330 331 332 332 332 332 329 328 326 325 324 324 327 335 336
339 339 339 338 337 334 334 334 334 333 333 334 333 334 334 334 332 331 331 331 332 332 331 328 328 325 324 324 325 328 335 335
339 340 339 339 339 334 335 335 334 333 333 334 334 334 334 334 334 333 332 331 332 332 331 329 328 326 324 325 326 333 335 334
339 340 339 337 339 338 335 335 334 334 333 333 334 339 340 340 337 334 333 333 332 332 331 330 328 329 326 327 329 334 334 333
337 338 338 336 337 336 338 339 338 335 333 336 336 339 339 338 339 335 335 334 333 333 331 330 331 336 335 333 334 334 333 333
338 333 335 333 331 331 331 333 330 328 328 335 339 335 338 340 340 340 337 337 337 335 334 334 336 337 336 336 334 334 333 334
339 338 331 329 328 327 327 326 336 328 327 327 330 330 332 334 339 340 340 339 339 338 337 336 335 336 337 336 334 334 334 334
315 334 337 334 328 326 324 324 328 323 323 324 326 328 330 329 336 339 339 339 339 339 337 336 334 336 335 335 335 335 333 333
312 313 325 324 327 328 326 323 323 324 322 323 325 327 331 327 328 336 339 339 338 337 339 337 335 335 334 336 334 333 333 333
312 311 313 318 314 320 332 328 324 323 322 323 323 323 326 329 327 328 336 338 338 336 336 336 334 335 334 333 333 333 333 332
311 310 311 312 321 323 321 329 334 333 325 323 323 322 322 326 331 328 330 333 333 337 335 335 335 335 334 334 333 332 331 331
308 309 310 310 317 331 333 333 336 338 337 334 331 328 325 325 335 332 327 331 333 334 336 336 335 335 333 333 333 332 330 330
310 309 311 310 315 322 329 333 333 334 337 336 335 332 330 328 330 325 322 323 329 333 335 336 335 334 333 332 331 330 328 329
313 313 313 314 316 315 325 329 332 328 332 333 337 336 332 331 331 330 324 323 330 331 332 335 335 334 333 333 332 330 328 328
310 311 312 312 314 318 316 327 330 332 332 335 335 334 332 328 329 332 328 324 324 332 332 333 335 334 333 331 331 329 330 331
307 310 312 312 313 316 318 320 328 330 332 330 317 324 333 329 328 330 333 326 324 325 330 331 332 332 333 332 330 330 330 329
305 309 313 313 311 314 319 318 325 329 331 332 326 316 327 335 328 331 332 331 325 325 331 331 330 331 330 332 330 331 330 328
307 308 311 314 313 313 315 322 322 327 329 332 332 324 317 323 334 334 332 332 329 327 328 330 330 330 329 331 330 330 330 328
304 307 309 311 314 314 316 317 324 328 329 332 333 333 332 325 331 333 332 332 332 330 329 330 329 330 332 332 331 330 329 329
298 302 305 309 312 314 317 319 324 327 331 331 333 334 335 334 328 331 331 331 332 331 331 330 330 331 332 332 330 329 329 330

GFSFLT2_850_thetae_117.txt.gz
Theta_e
349 342 339 338 336 336 334 332 331 332 332 333 334 335 335 334 332 332 332 332 332 333 333 333 330 328 326 325 325 326 338 337
349 341 340 338 337 337 335 334 333 333 333 333 334 335 335 334 333 332 332 332 332 333 333 332 330 327 327 324 324 326 335 337
349 344 342 343 341 337 336 336 335 334 333 333 333 334 334 334 333 332 332 332 332 333 333 331 329 327 327 325 326 330 335 335
347 350 343 347 346 344 337 337 336 335 334 333 334 337 341 341 339 334 333 333 333 334 333 330 329 328 327 326 327 335 333 333
344 347 347 341 344 345 343 342 341 338 336 337 335 341 341 341 342 338 335 333 334 334 332 331 330 336 336 332 333 334 334 333
345 346 343 340 340 344 343 341 342 341 341 339 340 341 341 342 342 342 338 338 336 336 334 332 335 336 335 335 334 334 333 334
338 343 344 344 340 343 337 337 340 341 342 341 341 339 340 342 340 340 339 340 339 340 337 337 337 337 337 335 335 335 334 333
318 330 342 341 342 341 340 335 340 340 340 340 340 341 340 342 340 339 340 338 340 341 339 338 337 340 337 337 335 335 334 333
316 317 319 336 340 340 340 340 339 340 340 340 331 337 339 339 338 339 338 339 339 341 339 338 337 336 337 336 336 335 334 333
314 315 316 322 331 337 339 339 339 338 339 337 327 324 335 339 333 334 339 338 340 339 339 338 337 336 336 337 335 335 334 334
315 317 316 317 319 331 336 337 338 339 338 339 334 322 323 334 337 329 332 340 339 338 338 339 337 338 337 336 336 337 335 335
317 318 320 320 316 319 330 335 336 338 338 337 336 336 324 326 338 335 328 333 339 338 337 338 337 339 336 337 336 334 335 334
315 316 317 319 321 317 320 331 334 336 335 339 338 338 339 336 336 336 331 326 328 336 337 338 336 337 337 336 335 334 334 334
312 312 313 315 317 320 318 320 328 333 334 335 339 340 339 339 338 338 339 333 328 339 336 337 336 335 336 334 334 333 334 333
308 309 310 312 313 315 318 319 320 328 332 334 337 340 341 340 338 335 338 334 331 333 333 339 336 335 335 334 333 331 332 332
306 306 307 309 311 313 316 318 320 322 330 333 333 338 339 339 340 339 338 334 333 331 327 329 338 337 334 333 332 330 331 331
303 303 304 306 308 309 312 316 319 321 321 332 332 335 336 338 339 339 339 337 331 330 330 329 333 337 334 333 333 333 333 333
299 300 302 303 304 305 307 310 315 319 322 325 331 332 333 335 337 337 337 337 334 331 331 328 330 332 335 332 331 332 333 332
296 296 297 299 300 303 308 310 311 315 319 322 330 332 333 332 335 340 337 336 331 331 332 330 332 330 336 332 332 331 332 332
292 292 293 295 301 306 310 311 312 312 317 316 326 332 332 334 333 334 339 335 335 333 333 331 331 329 331 328 333 331 332 331

GFSFLT2_850_thetae_123.txt.gz
Theta_e
349 350 348 342 338 335 333 331 330 330 333 334 335 334 334 335 336 335 333 332 331 332 334 334 332 329 327 326 328 333 336 334
336 344 346 345 339 336 333 332 330 330 330 331 331 333 334 335 335 335 334 332 330 331 332 333 333 329 326 325 325 332 337 335
326 336 339 344 342 337 334 333 331 330 330 331 331 332 333 333 334 335 334 332 330 331 332 332 332 329 327 324 323 326 334 334
332 341 341 343 341 338 336 334 332 331 330 331 331 330 331 331 332 333 334 333 331 331 332 331 331 330 328 325 321 327 334 334
327 338 343 341 343 339 337 335 334 332 331 332 332 331 331 332 332 331 333 333 332 331 331 331 331 330 328 326 322 324 334 335
319 328 339 342 342 344 342 338 336 334 333 332 332 332 332 333 331 330 331 332 332 332 331 331 331 330 328 329 325 325 333 333
318 317 317 330 341 341 344 345 344 339 335 333 332 333 332 333 332 331 331 333 333 333 332 332 332 331 329 333 334 330 334 334
320 323 332 331 328 336 340 342 344 342 339 335 334 331 332 333 338 334 333 337 335 334 333 333 333 332 330 334 333 334 332 333
318 318 319 325 326 330 335 337 338 339 341 341 338 333 332 333 339 339 334 336 335 334 334 335 335 335 331 334 336 335 333 335
314 316 316 317 317 317 320 328 334 337 337 339 343 339 338 335 337 339 337 341 337 337 334 335 333 336 333 334 335 335 334 334
314 314 315 316 316 317 317 319 323 334 336 337 337 338 337 337 337 338 339 341 340 340 338 336 334 335 335 335 334 336 335 333
311 310 310 310 312 315 317 317 319 322 332 334 335 335 336 335 336 340 339 338 339 341 340 339 337 334 335 334 334 334 334 334
308 307 307 307 307 308 310 315 317 321 321 332 334 333 334 337 335 335 337 337 340 340 339 339 338 336 335 336 334 334 334 335
306 307 307 306 307 308 308 310 313 318 321 326 334 334 335 333 333 332 335 334 337 341 339 340 339 338 335 336 336 335 334 334
303 304 305 304 304 305 306 307 309 310 317 319 321 324 333 332 332 329 330 336 335 337 340 340 339 338 335 334 336 335 334 332
300 301 301 302 302 302 302 303 305 308 309 314 318 321 327 332 332 331 329 333 334 334 337 340 336 335 337 334 332 330 332 332
298 299 300 300 300 300 300 300 302 303 308 308 311 317 320 328 331 333 333 332 334 334 332 336 336 330 333 332 335 333 331 329
296 296 295 297 299 299 298 298 298 300 301 308 309 309 315 320 324 331 332 333 332 333 335 336 334 333 334 334 332 334 333 330
291 291 293 294 294 296 297 295 295 296 298 304 310 310 308 312 318 323 333 332 331 332 333 334 334 328 331 333 334 334 333 333
289 289 289 292 292 294 296 297 295 295 299 302 307 311 311 310 311 316 325 332 332 329 330 331 332 325 326 331 334 335 334 334

GFSFLT2_850_thetae_129.txt.gz
Theta_e
323 327 333 345 342 340 337 333 331 331 333 336 338 338 336 333 332 331 331 330 329 329 331 333 332 329 329 328 329 330 331 332
324 326 333 342 347 343 340 335 332 330 331 334 337 337 336 335 333 332 331 330 329 328 329 333 332 329 327 327 327 327 330 329
325 333 338 340 341 342 344 338 333 332 334 336 336 336 335 336 334 333 333 331 330 329 329 332 333 329 327 325 325 328 330 332
328 333 336 340 341 341 340 341 335 334 334 335 336 337 337 335 335 334 334 332 331 329 329 331 332 330 327 325 323 325 331 332
327 336 336 331 339 344 342 341 337 335 335 336 337 337 338 337 335 335 335 335 333 330 329 331 331 331 328 325 323 322 326 329
332 324 324 325 333 340 342 340 338 336 334 334 334 335 336 336 336 334 335 335 334 331 329 329 331 331 330 327 324 321 322 327
330 329 325 328 335 337 336 335 338 340 339 336 334 333 332 333 334 335 334 335 336 333 331 329 330 332 331 329 326 322 320 327
325 325 324 325 325 328 330 332 335 337 339 338 338 336 335 333 332 333 334 334 335 335 333 331 330 330 331 330 327 324 322 328
315 317 318 320 324 326 325 325 327 331 335 335 336 337 338 335 334 334 333 335 336 336 335 333 332 331 331 331 329 326 323 323
310 310 312 315 316 317 319 318 319 319 319 321 327 332 332 335 337 335 333 332 333 335 335 334 334 333 332 331 330 329 326 324
308 308 308 309 310 311 311 311 313 314 314 314 315 317 321 326 331 335 333 333 333 331 331 333 336 335 333 332 331 330 332 332
305 306 306 306 306 307 307 307 308 308 307 307 307 307 312 319 328 329 327 322 334 332 331 332 333 335 335 334 334 332 331 333
304 304 305 305 306 306 307 307 307 307 307 307 307 307 306 308 320 324 325 327 327 329 333 334 334 333 334 334 335 334 331 334
303 304 304 304 304 305 305 306 307 307 307 307 307 307 307 307 309 318 324 329 327 326 332 334 334 333 332 334 335 335 333 333
302 302 303 304 304 304 304 305 305 306 306 307 307 306 306 307 307 310 319 327 328 323 325 326 333 333 332 332 333 333 334 333
298 299 300 301 301 302 302 302 304 304 304 305 305 305 306 306 307 307 312 321 325 326 324 324 326 328 330 330 330 328 332 332
296 296 296 296 297 297 297 298 299 300 301 302 304 303 304 305 306 306 307 312 320 327 325 324 324 325 325 331 329 328 327 329
293 293 295 294 295 296 296 295 295 296 298 299 301 302 303 304 305 305 306 307 312 323 326 326 324 328 327 331 329 330 329 329
292 292 293 292 292 292 292 291 292 292 294 295 298 299 299 301 304 304 305 306 308 314 325 325 326 330 329 327 327 328 330 330
291 290 291 290 290 290 289 289 290 291 292 293 295 298 298 300 301 302 305 306 308 308 313 322 324 326 329 330 330 329 329 330

GFSFLT2_850_thetae_132.txt.gz
Theta_e
332 334 337 341 343 341 340 336 334 334 336 338 338 337 338 335 333 332 331 330 329 328 330 332 330 330 329 329 330 329 329 330
334 337 339 341 343 344 342 339 335 335 337 339 339 336 337 337 334 333 332 331 330 329 329 332 332 331 329 328 328 329 327 331
323 333 337 338 340 342 340 342 339 335 336 338 339 337 336 337 336 334 333 333 332 330 329 330 333 331 329 328 328 327 327 329
322 331 331 336 338 342 342 340 341 338 336 337 339 338 336 337 337 335 333 333 333 332 330 330 332 332 329 328 327 327 327 329
326 326 326 330 326 334 337 338 338 339 337 336 337 339 338 337 337 337 335 334 334 333 332 330 330 331 331 328 326 326 326 329
328 327 326 327 327 327 332 334 335 337 338 336 335 336 335 335 337 337 337 335 334 334 333 331 330 330 330 329 327 325 324 329
328 326 327 327 329 332 332 329 331 332 333 334 336 336 335 335 334 335 336 336 335 334 334 333 331 331 330 330 329 326 325 323
317 318 319 321 323 323 324 325 325 325 329 333 334 335 336 335 336 334 334 335 334 335 334 334 333 331 330 331 330 328 325 323
310 312 313 314 316 320 321 321 321 321 321 321 324 323 326 334 335 335 336 334 335 335 335 333 333 332 331 331 331 330 327 324
307 307 308 309 310 311 312 312 313 314 314 315 315 316 317 318 320 316 323 330 335 335 333 335 333 331 333 331 331 331 330 326
307 307 308 308 307 308 308 307 308 308 308 309 309 308 308 309 311 315 315 312 316 333 333 332 332 333 332 332 331 331 331 328
305 305 306 306 306 306 306 306 306 306 307 307 306 306 306 306 306 306 313 318 313 314 324 331 333 332 330 330 330 331 331 330
304 304 304 305 305 306 306 307 307 307 307 307 307 307 306 306 307 307 306 310 321 323 321 326 325 329 332 330 329 330 331 331
303 303 303 304 304 304 304 304 305 306 306 306 306 306 306 306 306 307 307 307 317 323 325 326 323 321 331 331 331 332 330 332
301 301 302 302 302 302 303 303 304 304 305 305 305 306 306 306 305 306 307 306 309 322 325 326 324 323 326 328 330 330 331 331
298 299 299 299 300 300 300 300 301 301 302 303 304 304 305 305 305 305 306 306 306 311 324 328 328 325 324 330 331 330 329 330
294 294 295 295 295 295 295 296 295 296 297 299 300 302 303 304 303 304 305 305 306 307 315 326 328 324 325 326 326 327 328 330
293 292 293 292 291 291 289 288 289 290 291 293 296 299 301 301 301 303 304 305 305 305 307 316 326 326 323 324 325 323 322 328
293 293 293 292 291 290 288 287 288 289 290 291 292 294 296 299 299 299 301 304 304 304 305 313 323 326 325 323 323 324 324 326
293 293 293 291 290 289 288 287 288 288 290 291 292 293 294 296 298 298 299 301 302 303 304 307 319 324 326 325 324 324 324 326